DECAYED

STARLINK-2375, 47914 (Decayed)

Orbit data source: Space-Track

STARLINK-2375, 47914 was a payload satellite owned by SpaceX/Seattle (US) in LEO that was launched on Sun, 14 Mar 2021 UTC via an FALCON 9 launch vehicle from the Air Force Eastern Test Range (AFETR). Payload-class satellites include a variety of spacecraft equipped with specific instruments for various scientific and technological missions. These include communications satellites like Starlink; space stations such as the ISS; scientific satellites like the Hubble; Earth observation satellites from companies like Planet Labs, Umbra, and HawkEye 360; GPS; miniature CubeSats for education and research; and military/defense satellites.

Not visible in the next 10 days
Identifier
47914, 2021-021BG
Orbit
Decayed
Country
Flag of USUS
Related business
Manufacturer
SpaceX/Seattle
Mission
Decayed Commercial Communications
Bus & Motor
STARLINK, Unknown motor
Mass
260 kg wet, ~248 kg dry
Launch date (UTC)
2021-03-14 (5 years ago)
Launch vehicle
FALCON 9
Launch site
Air Force Eastern Test Range (AFETR)
Object type
Payload
Rocket body
Debris
Shape & HBR
Box + 1 Pan, 10.1 m
Radar Cross Section
13.562 m², Large (>1 m²)

Expand to show TLE details & history
Last TLE update: 1 year ago

TLE from 1 year ago
0 STARLINK-2375
1 47914U 21021BG  25021.78632661  .23150223  12618-4  26140-3 0  9996
2 47914  53.0208 304.9057 0002979 237.6193 226.8892 16.50111921213832
Epoch: 2025-01-21T18:52Z
TLE epoch observation values (Epoch: 2025-01-21T18:52:18.619Z)
Latitude
50.82326°
Longitude
13.70621°
Altitude
146.308 km
Speed
7.824 km/s
True Right ascension
03h 52m 41s
True Declination
50° 38' 20"
Sunlit
Object was in full shadow at epoch
Visualization orbit readout
Latitude
Unknown
Longitude
Unknown
Altitude
Unknown
Speed
Unknown
Apparent Right ascension
Unknown
Apparent Declination
Unknown
Sunlit
N/A
Visualization observer readout
Local Sidereal Time
21:31:44
Azimuth
Unknown
Elevation
Unknown
Doppler factor
Unknown
Orbital elements
Apogee altitude
141.275 km
Perigee altitude
137.392 km
Semi-major axis
6,517.471 km
Eccentricity
0.0003
Inclination
53.0208°
RAAN
304.9057°
Arg. of periapsis
237.6193°
True anomaly
226.86429°
Mean anomaly
226.8892°
Eccentric anomaly
226.87674°
Mean motion
4.12501 °/min
Orbital period
87.27 mins
BSTAR
0.0002614
Loading maneuver chart data...
Computing Atmospheric mass density...

Documentation

Showing up to 5 results
|